Theta_e
328 330 331 332 332 333 334 333 331 330 330 329 330 330 329 329 328 328 328 326 325 323 324 323 323 324 325 326 327 328 327 320 314 311 312 312 319 318 316 316 315 316 319
325 326 327 328 328 327 331 331 333 334 332 331 330 330 330 329 328 328 328 328 327 326 327 329 328 328 328 326 327 329 329 328 322 318 312 313 311 316 320 317 316 316 315
323 324 324 325 326 328 328 329 329 330 331 332 331 331 330 329 328 328 328 329 328 327 327 327 328 328 328 330 330 329 329 329 328 323 320 312 313 311 311 318 320 317 316
319 323 323 323 324 324 327 327 327 327 328 328 329 332 331 330 329 329 329 328 329 329 328 326 326 326 327 327 327 327 327 327 328 328 323 320 313 315 314 311 314 322 320
315 317 321 323 322 323 322 325 328 328 328 328 327 328 330 331 331 330 329 328 328 328 327 328 326 326 326 326 326 326 326 326 326 326 327 324 321 315 313 313 313 311 314
317 315 315 319 322 321 321 322 322 327 327 328 328 328 328 329 330 329 329 328 328 328 327 327 328 328 327 327 327 326 326 326 326 326 326 326 326 323 322 321 320 315 311
317 317 317 316 319 320 319 320 321 319 319 324 325 327 327 326 327 328 328 328 327 327 326 326 327 325 325 324 325 326 326 326 326 325 326 326 326 328 327 325 322 322 322
312 313 316 317 318 318 318 318 319 318 317 317 318 319 320 319 319 321 325 327 327 326 327 327 326 325 324 323 322 323 323 323 325 326 324 325 325 326 328 328 328 328 327
309 310 313 313 313 315 317 317 318 317 316 315 313 313 310 305 310 309 306 314 318 319 322 323 324 324 322 321 320 321 322 322 323 322 323 323 324 324 325 326 326 327 327
303 305 307 310 309 310 313 313 315 314 314 312 310 308 307 305 305 307 306 305 305 307 311 315 316 318 322 319 320 320 318 320 322 321 322 321 322 321 320 321 322 324 325
297 296 301 304 306 306 309 311 310 313 313 312 309 310 302 307 304 304 307 307 307 308 309 312 315 317 318 319 318 318 319 319 319 320 319 321 318 318 320 319 319 320 321
289 292 297 299 301 301 303 305 305 308 308 308 304 302 305 304 301 300 304 305 306 307 310 311 313 314 315 316 316 317 317 315 318 318 317 318 318 318 318 317 316 316 317
288 288 289 290 293 292 293 295 297 300 305 305 302 303 304 305 305 300 298 301 304 306 306 308 310 311 312 313 313 314 314 315 314 315 316 316 315 314 313 311 312 311 309
288 288 288 288 288 289 289 289 290 291 293 298 299 299 297 296 299 298 297 297 298 303 305 303 305 306 305 306 305 305 306 306 306 306 306 306 305 304 304 303 303 302 302
288 288 288 288 288 288 288 289 289 290 290 291 291 291 293 293 293 294 294 295 296 296 297 299 299 298 298 297 297 297 297 297 297 297 297 297 297 298 298 298 298 298 298
288 288 288 288 288 288 288 288 288 289 289 289 290 290 290 291 291 292 292 292 293 294 294 294 294 295 295 295 296 296 296 296 296 296 296 296 296 296 296 296 297 297 298
288 288 288 288 288 288 288 288 288 288 288 288 289 289 289 290 290 290 291 291 291 292 292 292 292 293 293 294 294 294 294 294 294 294 294 295 295 295 295 295 296 296 297
287 287 287 288 288 288 288 288 288 288 288 287 288 288 288 288 288 289 289 289 290 291 290 291 291 291 291 291 291 292 292 292 292 293 293 293 294 294 295 295 295 296 296
288 288 288 287 287 288 288 288 288 288 288 288 288 288 288 287 287 287 288 288 288 288 288 289 289 289 289 290 290 291 291 291 292 292 293 293 294 294 294 295 295 295 295
290 290 289 288 287 287 287 287 287 287 288 288 288 288 288 288 288 288 288 288 288 288 288 288 289 289 289 290 290 290 292 292 293 293 294 293 294 293 293 294 294 295 295
291 291 291 290 289 288 287 287 287 287 287 287 287 287 287 287 288 288 287 288 288 288 288 288 288 289 289 289 289 290 291 293 294 293 294 293 293 293 293 293 293 293 293
290 290 291 291 290 290 289 289 288 287 287 286 287 287 287 287 287 288 288 287 287 287 287 287 288 288 288 287 288 288 288 289 291 292 290 294 292 293 293 292 292 292 292
288 288 289 290 290 290 289 289 288 288 287 286 286 286 286 286 286 286 286 286 286 286 286 286 286 286 286 286 286 286 286 286 287 289 287 290 291 291 291 291 291 291 291
285 286 287 287 288 288 289 288 288 287 287 287 285 285 285 285 285 285 285 286 286 286 285 285 285 285 285 285 284 284 285 284 285 285 285 285 287 289 289 288 289 289 289
283 283 283 284 285 286 286 287 287 287 287 287 287 285 284 284 284 284 284 285 285 286 285 285 284 284 284 283 282 283 283 283 283 284 283 283 283 285 287 287 287 288 288
281 282 282 282 283 284 284 285 286 287 287 286 286 285 284 284 283 283 283 284 285 284 285 285 284 283 283 282 282 282 282 281 281 281 282 281 281 280 282 285 286 285 286
Wind_Speed
13 21 24 21 21 21 21 23 20 18 15 13 12 11 9 9 6 7 7 7 7 7 7 6 6 5 5 7 8 11 13 14 13 10 9 8 8 9 10 10 10 10 11
7 16 18 21 22 22 21 19 16 18 20 17 16 15 13 12 10 9 7 6 7 7 7 6 4 4 3 4 4 5 7 10 12 11 9 8 7 6 8 9 9 9 8
5 5 5 16 20 23 24 23 22 20 15 17 17 17 17 15 14 11 9 6 5 7 7 7 6 4 3 1 3 3 4 5 7 9 10 8 7 6 5 5 7 8 7
10 11 10 10 17 19 25 26 25 24 23 22 18 19 20 19 18 16 14 12 10 8 7 7 9 8 6 4 2 1 2 3 3 5 7 8 6 6 5 5 4 5 6
6 12 12 11 12 14 22 22 27 28 28 28 26 23 20 22 20 18 17 14 13 12 11 9 9 9 9 7 6 5 4 2 2 3 4 4 5 5 4 4 4 3 2
12 12 15 13 15 12 16 19 21 26 28 30 29 26 25 22 20 20 20 18 17 15 13 12 11 8 7 6 8 7 7 5 5 5 4 3 3 3 3 3 4 4 4
17 16 14 13 15 13 12 11 14 20 20 25 25 27 25 22 22 23 23 23 22 19 16 14 16 14 11 9 9 9 8 7 8 8 7 7 4 4 5 5 5 4 4
14 14 14 13 15 10 6 7 7 12 18 15 16 20 16 16 15 16 20 22 21 19 18 18 18 17 15 12 9 10 10 10 7 7 10 8 8 6 5 4 4 5 6
12 13 14 13 11 8 8 8 7 8 11 12 10 8 8 5 4 6 6 13 16 16 16 17 18 18 15 14 12 12 13 14 15 14 13 12 10 9 10 9 10 7 9
8 9 11 13 11 11 9 7 6 3 3 8 7 8 7 11 7 4 7 5 9 12 14 15 16 17 18 15 13 15 14 17 17 19 18 18 18 16 16 16 17 16 16
2 3 6 8 9 10 10 9 6 8 7 2 3 7 6 8 4 3 5 6 7 9 11 12 14 15 17 17 17 15 17 18 19 19 22 22 20 17 18 22 22 22 22
1 1 2 3 7 7 8 7 5 7 7 4 7 6 5 7 5 5 11 14 10 11 11 12 13 13 15 16 18 18 20 20 23 22 24 26 24 24 25 25 27 27 28
2 1 1 0 1 2 3 3 3 6 6 8 7 8 7 3 3 5 13 16 16 16 13 15 15 15 15 16 17 18 19 21 22 24 26 28 28 29 31 31 32 34 31
2 2 2 1 1 2 3 3 4 5 5 6 8 9 9 9 13 15 19 20 17 16 18 15 15 17 16 17 18 19 20 20 21 22 24 25 26 27 26 26 25 27 27
1 1 1 2 2 2 2 4 4 5 6 6 7 8 11 14 15 16 17 18 19 13 17 18 17 18 18 17 19 18 19 20 20 21 23 23 23 24 23 23 23 23 23
3 2 1 1 1 2 3 3 3 5 6 6 7 8 8 9 11 12 12 13 15 15 13 15 16 17 17 18 20 21 21 22 23 23 24 24 24 25 25 26 26 26 26
2 2 1 0 0 0 1 2 3 4 4 5 6 6 7 7 7 9 10 12 12 12 13 15 13 14 15 17 19 21 22 24 24 25 26 26 25 25 24 25 26 26 27
2 1 1 1 1 1 2 1 2 2 3 4 4 4 5 6 6 7 8 9 11 11 11 11 12 14 14 16 18 19 20 21 22 23 24 24 24 24 24 25 25 26 26
3 3 3 3 3 3 3 2 2 3 3 3 3 4 4 5 6 7 7 9 9 9 10 11 12 13 14 15 16 17 19 18 19 21 21 22 22 22 23 24 25 26 27
3 3 4 4 5 5 4 4 4 4 4 4 4 4 4 5 5 6 7 8 8 8 9 9 10 13 14 15 17 19 18 18 18 20 20 20 19 19 20 23 24 25 27
6 6 6 6 7 6 6 6 6 5 5 5 6 6 6 7 7 7 7 8 8 9 9 10 11 12 14 17 19 20 21 22 20 20 19 17 21 22 22 22 23 25 26
12 12 12 12 11 10 10 10 11 10 9 9 9 8 8 8 8 9 10 9 9 10 10 11 12 13 15 17 19 21 22 23 22 20 27 23 24 21 21 21 23 24 25
16 16 17 17 16 15 15 15 16 16 14 13 13 12 11 11 10 10 11 10 10 11 12 13 14 15 17 17 20 21 21 22 24 22 28 29 24 25 21 21 22 23 23
16 16 17 17 18 18 18 18 18 19 20 18 17 15 14 13 12 13 12 12 12 12 13 14 16 16 17 18 20 21 22 24 25 24 21 29 25 24 23 24 22 18 16
17 18 18 18 19 17 18 18 19 20 21 21 20 19 18 16 15 15 15 14 13 14 15 17 18 18 17 17 18 20 20 22 24 21 22 21 24 31 27 22 16 5 3
23 22 21 21 21 20 19 19 20 21 22 22 23 22 20 19 17 16 17 15 15 14 16 17 16 16 16 17 17 18 19 19 20 19 16 24 27 26 23 17 7 23 24
Wind_Direction
212 204 203 206 206 206 202 201 202 207 210 202 196 194 191 190 181 181 165 158 147 138 124 112 104 93 75 67 66 66 65 64 65 71 69 67 72 70 70 71 71 69 63
229 236 205 203 212 214 217 209 195 201 201 204 203 205 203 199 195 199 189 184 180 168 154 140 129 114 82 59 49 56 63 65 63 60 68 68 62 64 65 69 71 71 69
296 275 284 235 208 209 215 215 213 214 216 198 212 212 210 211 212 208 211 216 212 203 193 190 191 190 173 109 55 43 68 60 67 61 59 65 69 61 54 59 67 68 65
280 294 269 267 247 227 212 212 213 211 214 218 215 215 217 215 219 219 222 231 228 232 230 227 219 216 216 215 220 342 46 58 51 57 54 55 62 63 62 49 55 58 58
227 264 268 267 247 265 242 216 207 210 213 214 216 219 220 212 221 225 230 234 239 237 236 238 246 230 226 228 239 254 278 330 1 13 27 39 45 54 45 44 34 23 36
203 220 265 279 269 260 253 246 229 207 211 213 214 217 222 230 229 231 237 243 248 241 234 235 237 234 230 248 237 246 265 282 296 303 318 330 342 9 12 20 27 17 358
204 210 216 261 267 251 252 247 251 244 223 217 215 213 217 223 227 236 240 242 242 242 236 235 236 245 246 241 242 243 253 264 271 273 280 282 289 294 303 313 321 321 327
222 209 212 221 231 219 255 283 276 252 241 240 223 214 208 222 220 225 232 232 234 236 239 238 232 238 245 241 233 234 237 244 251 250 260 256 259 264 269 278 292 286 292
229 218 217 204 214 220 237 270 284 278 256 231 208 192 168 136 197 240 242 232 229 227 228 227 228 230 233 238 228 227 229 238 241 249 261 272 273 280 279 278 280 290 293
224 224 218 214 214 219 214 229 248 229 258 244 202 180 155 125 105 64 247 222 217 223 224 224 225 228 226 230 228 230 227 232 240 246 253 256 267 274 282 281 273 267 268
207 223 227 227 221 226 210 200 217 214 158 192 224 217 153 160 188 256 347 286 237 221 219 216 218 219 227 226 229 231 233 237 245 247 257 257 268 260 267 278 273 272 268
165 225 256 230 235 226 217 204 202 205 176 195 183 187 208 178 156 274 260 271 262 236 222 221 219 219 229 237 242 246 244 246 244 250 254 261 258 259 264 269 272 273 270
130 145 153 195 242 248 256 243 242 255 228 234 217 201 190 226 212 245 258 251 248 246 233 225 226 228 228 236 244 247 248 248 252 255 260 263 267 267 267 268 271 275 278
151 141 134 169 202 225 226 235 232 254 237 240 246 232 211 212 223 225 232 237 238 235 232 235 235 239 239 241 246 253 257 260 261 264 265 269 271 272 274 275 275 276 279
154 153 161 173 170 197 227 236 235 244 254 246 239 227 225 221 214 215 221 224 231 236 238 237 235 237 241 247 253 258 266 269 272 274 276 278 279 281 281 281 280 280 280
145 149 166 186 165 168 187 202 222 227 234 236 235 243 240 229 232 237 231 232 227 227 228 229 234 239 248 258 265 270 274 278 281 283 283 283 284 284 285 284 283 282 280
163 157 160 164 235 275 242 208 200 208 220 233 240 235 242 245 246 241 249 247 249 242 237 240 244 250 258 266 272 279 280 282 284 286 286 287 287 288 289 289 288 287 285
212 217 205 208 227 215 232 245 247 230 217 218 230 245 249 249 250 251 250 255 260 263 258 258 261 268 273 277 280 282 284 285 287 287 289 290 291 293 291 289 288 289 288
261 268 268 262 250 242 240 239 240 249 254 250 243 241 248 257 260 260 261 261 262 267 271 277 287 288 290 291 289 290 290 291 293 292 293 294 294 291 289 289 289 288 288
269 288 287 281 273 271 267 264 264 268 269 267 263 260 254 252 255 261 263 268 272 275 281 289 295 298 302 301 301 300 297 297 296 295 295 292 290 289 292 292 291 288 286
265 274 284 288 281 277 276 276 273 268 265 262 264 269 271 269 268 268 267 272 279 283 288 291 296 300 303 305 305 308 308 306 304 305 296 295 294 294 291 289 287 286 286
267 268 270 272 277 280 276 275 275 271 269 267 268 267 266 268 273 278 282 284 284 284 290 294 296 297 301 304 307 309 311 312 315 313 306 300 301 296 295 293 289 287 288
263 265 266 266 265 266 268 270 271 270 265 264 265 268 271 275 276 272 274 282 288 292 296 293 295 299 300 305 306 307 309 311 308 312 309 304 304 304 302 298 296 297 295
267 265 264 265 265 265 264 263 264 263 265 263 262 262 263 266 271 274 277 281 284 286 285 287 291 293 297 300 299 300 306 307 310 312 309 305 308 303 307 308 306 304 297
266 266 267 267 266 263 263 261 259 259 261 264 264 261 261 263 266 268 272 277 283 285 287 290 291 296 297 294 295 297 304 305 308 310 312 308 313 313 312 313 310 291 304
265 265 264 266 265 264 264 262 260 258 256 257 259 259 259 261 262 265 270 275 279 284 285 286 290 291 291 293 294 295 297 301 305 316 309 312 313 321 321 315 296 302 304